This demonstration page uses our WeatherBlox Daily Observations layout. Learn more.

Left ArrowRight Arrow

Hourly Observations for April 24, 2019

Temp ( °F °C ) Dew Point ( °F °C ) Humidity (%) Winds ( mph kmh ) Pressure ( in mb ) Visibility ( mi km ) Precip ( " mm )
12:52 am 00:52 Mostly Cloudy 52 11.1 43 6.1 72 72 SSE 6 9 29.98 1015 10 16 0.00 0.00
1:52 am 01:52 Mostly Cloudy 51 10.6 43 6.1 74 74 SE 5 7 29.97 1015 10 16 0.00 0.00
2:52 am 02:52 Partly Cloudy 49 9.4 43 6.1 80 80 SE 7 11 29.95 1014 10 16 0.00 0.00
3:52 am 03:52 Partly Cloudy 49 9.4 43 6.1 80 80 SSE 7 11 29.95 1014 10 16 0.00 0.00
4:52 am 04:52 Partly Cloudy 47 8.3 42 5.6 83 83 SE 6 9 29.93 1014 10 16 0.00 0.00
5:52 am 05:52 Partly Cloudy 48 8.9 43 6.1 83 83 SSE 5 7 29.92 1013 9 14 0.00 0.00
6:52 am 06:52 Mostly Cloudy 46 7.8 42 5.6 86 86 Calm 29.93 1014 8 13 0.00 0.00
7:52 am 07:52 Partly Cloudy 50 10 45 7.2 83 83 SSE 6 9 29.94 1014 7 11 0.00 0.00
8:52 am 08:52 Mostly Sunny 54 12.2 47 8.3 77 77 SSE 7 11 29.94 1014 7 11 0.00 0.00
9:52 am 09:52 Sunny 60 15.6 48 8.9 65 65 S 7 11 29.93 1013 8 13 0.00 0.00
10:52 am 10:52 Sunny 64 17.8 46 7.8 52 52 Calm 29.91 1013 10 16 0.00 0.00
11:52 am 11:52 Mostly Sunny 66 18.9 46 7.8 49 49 E 6 9 29.88 1012 10 16 0.00 0.00
12:52 pm 12:52 Mostly Sunny 69 20.6 41 5 36 36 VRB 3 6 29.85 1011 10 16 0.00 0.00
1:52 pm 13:52 Mostly Sunny 71 21.7 39 3.9 31 31 ESE 8 13 29.83 1010 10 16 0.00 0.00
2:52 pm 14:52 Mostly Sunny 73 22.8 37 2.8 27 27 ESE 10 17 29.82 1010 10 16 0.00 0.00
3:52 pm 15:52 Partly Cloudy 74 23.3 37 2.8 26 26 VRB 6 9 29.80 1009 10 16 0.00 0.00
4:52 pm 16:52 Partly Cloudy 75 23.9 35 1.7 23 23 SSE 8 13 29.78 1008 10 16 0.00 0.00
5:52 pm 17:52 Partly Cloudy 75 23.9 37 2.8 25 25 ESE 7 11 29.75 1008 10 16 0.00 0.00
6:52 pm 18:52 Partly Cloudy 74 23.3 40 4.4 29 29 SE 8 13 29.75 1007 10 16 0.00 0.00
7:52 pm 19:52 Mostly Cloudy 72 22.2 40 4.4 31 31 S 10 17 29.75 1007 10 16 0.00 0.00
8:52 pm 20:52 Partly Cloudy 65 18.3 42 5.6 43 43 S 6 9 29.76 1008 10 16 0.00 0.00
9:52 pm 21:52 Partly Cloudy 63 17.2 43 6.1 48 48 SSE 7 11 29.76 1008 10 16 0.00 0.00
10:52 pm 22:52 Clear 60 15.6 44 6.7 56 56 SSE 7 11 29.76 1008 10 16 0.00 0.00
11:52 pm 23:52 Clear 60 15.6 48 8.9 65 65 SSE 9 15 29.75 1008 10 16 0.00 0.00

Powered by AerisWeather